CW9638 Weather Reports


time (UTC)temp
C
wind
direction
speed
KPH
gust
KPH
rain 1hr
cm
rain 24hr
cm
rain mn
cm
humidity
%
barometer
mb
20260505011552 17 360 27.4 46.7 0.00 0.00 0.00 34 1004.8
20260505011050 18 14 30.6 46.7 0.00 0.00 0.00 34 1004.8
20260505010550 18 5 20.9 37.0 0.00 0.00 0.00 34 1004.8
20260505010050 18 20 22.5 45.1 0.00 0.00 0.00 34 1004.4
20260505005550 18 360 27.4 45.1 0.00 0.00 0.00 33 1004.4
20260505005050 18 21 27.4 43.5 0.00 0.00 0.00 33 1004.4
20260505004555 19 29 29.0 41.8 0.00 0.00 0.00 32 1004.1
20260505004050 20 22 29.0 40.2 0.00 0.00 0.00 32 1004.1
20260505003549 20 24 29.0 40.2 0.00 0.00 0.00 31 1004.1
20260505003052 20 14 27.4 38.6 0.00 0.00 0.00 31 1003.9
20260505002551 21 360 17.7 33.8 0.00 0.00 0.00 32 1003.9
20260505002048 21 22 16.1 27.4 0.00 0.00 0.00 32 1003.9
20260505001548 21 21 16.1 30.6 0.00 0.00 0.00 32 1003.9
20260505001047 21 10 20.9 33.8 0.00 0.00 0.00 31 1003.9
20260505000547 21 5 22.5 33.8 0.00 0.00 0.00 31 1003.9
20260505000055 21 347 20.9 33.8 0.00 0.00 0.00 30 1003.9
20260504235550 21 5 22.5 33.8 0.00 0.00 0.00 29 1003.9
20260504235047 22 14 17.7 30.6 0.00 0.00 0.00 30 1003.9
20260504234546 22 25 19.3 32.2 0.00 0.00 0.00 29 1003.5
20260504234046 22 5 22.5 35.4 0.00 0.00 0.00 29 1003.5
20260504233547 22 360 20.9 35.4 0.00 0.00 0.00 30 1003.5
20260504233045 22 355 20.9 35.4 0.00 0.00 0.00 29 1003.3
20260504232546 22 17 22.5 35.4 0.00 0.00 0.00 29 1003.3
20260504232047 22 342 19.3 32.2 0.00 0.00 0.00 29 1003.3
20260504231544 22 355 19.3 38.6 0.00 0.00 0.00 28 1002.8
20260504231044 23 18 27.4 38.6 0.00 0.00 0.00 28 1002.8
20260504230546 23 15 20.9 33.8 0.00 0.00 0.00 28 1002.8
20260504230049 23 23 22.5 32.2 0.00 0.00 0.00 28 1002.4
20260504225544 23 340 24.1 38.6 0.00 0.00 0.00 28 1002.4
20260504225043 23 21 24.1 38.6 0.00 0.00 0.00 27 1002.4
20260504224547 24 355 24.1 33.8 0.00 0.00 0.00 28 1002.2
20260504224043 24 355 19.3 30.6 0.00 0.00 0.00 28 1002.2
20260504223543 25 5 19.3 35.4 0.00 0.00 0.00 27 1002.2
20260504223042 25 36 22.5 38.6 0.00 0.00 0.00 27 1001.7
20260504222545 25 13 22.5 38.6 0.00 0.00 0.00 27 1001.7
20260504222042 25 350 17.7 33.8 0.00 0.00 0.00 28 1001.7
20260504221542 25 13 20.9 30.6 0.00 0.00 0.00 27 1001.4
20260504221041 25 31 22.5 30.6 0.00 0.00 0.00 27 1001.4
20260504220541 25 13 20.9 30.6 0.00 0.00 0.00 28 1001.4
20260504220042 25 32 20.9 30.6 0.00 0.00 0.00 28 1001.4
20260504215540 25 22 20.9 27.4 0.00 0.00 0.00 28 1001.4
20260504215040 26 346 17.7 29.0 0.00 0.00 0.00 29 1001.4
20260504214546 25 20 19.3 30.6 0.00 0.00 0.00 30 1001.3
20260504214039 25 32 19.3 30.6 0.00 0.00 0.00 29 1001.3
20260504213540 26 5 17.7 30.6 0.00 0.00 0.00 30 1001.3
20260504213039 26 15 19.3 29.0 0.00 0.00 0.00 30 1001.2
20260504212538 26 13 12.9 33.8 0.00 0.00 0.00 30 1001.2
20260504212041 26 27 22.5 33.8 0.00 0.00 0.00 31 1001.2
20260504211538 26 10 20.9 29.0 0.00 0.00 0.00 31 1001.2
20260504211041 26 349 8.0 29.0 0.00 0.00 0.00 32 1001.2
20260504210539 26 343 16.1 29.0 0.00 0.00 0.00 31 1001.2
20260504210053 26 5 16.1 25.7 0.00 0.00 0.00 31 1001.2
20260504205538 26 360 14.5 25.7 0.00 0.00 0.00 31 1001.2
20260504205038 26 336 16.1 32.2 0.00 0.00 0.00 31 1001.2
20260504204552 26 5 20.9 32.2 0.00 0.00 0.00 31 1001.0
20260504204037 26 15 16.1 25.7 0.00 0.00 0.00 32 1001.0
20260504203537 26 335 16.1 29.0 0.00 0.00 0.00 32 1001.0
20260504203038 26 360 17.7 32.2 0.00 0.00 0.00 32 1000.9
20260504202535 27 317 20.9 32.2 0.00 0.00 0.00 31 1000.9
20260504202036 26 346 12.9 27.4 0.00 0.00 0.00 31 1000.9
20260504201535 27 309 16.1 29.0 0.00 0.00 0.00 31 1000.8
20260504201036 26 355 17.7 30.6 0.00 0.00 0.00 32 1000.8
20260504200536 26 355 22.5 30.6 0.00 0.00 0.00 30 1000.8
20260504200036 27 333 14.5 27.4 0.00 0.00 0.00 30 1000.7
20260504195535 27 348 17.7 29.0 0.00 0.00 0.00 30 1000.7
20260504195035 27 346 16.1 29.0 0.00 0.00 0.00 30 1000.7
20260504194535 27 360 14.5 25.7 0.00 0.00 0.00 28 1000.7
20260504194036 27 348 17.7 25.7 0.00 0.00 0.00 27 1000.7
20260504193538 27 336 12.9 27.4 0.00 0.00 0.00 28 1000.7
20260504193035 27 314 16.1 27.4 0.00 0.00 0.00 28 1000.6
20260504192534 27 5 14.5 25.7 0.00 0.00 0.00 26 1000.6
20260504192034 27 310 17.7 27.4 0.00 0.00 0.00 28 1000.6
20260504191534 27 355 17.7 29.0 0.00 0.00 0.00 26 1000.5
20260504191034 27 312 16.1 24.1 0.00 0.00 0.00 28 1000.5
20260504190535 27 340 11.3 30.6 0.00 0.00 0.00 26 1000.5
20260504190034 27 311 19.3 30.6 0.00 0.00 0.00 26 1000.4
20260504185533 27 300 12.9 22.5 0.00 0.00 0.00 27 1000.4
20260504185037 27 308 14.5 22.5 0.00 0.00 0.00 28 1000.4
20260504184532 27 296 8.0 25.7 0.00 0.00 0.00 27 1000.5
20260504184031 27 348 16.1 25.7 0.00 0.00 0.00 28 1000.5
20260504183530 27 355 9.7 25.7 0.00 0.00 0.00 27 1000.5
20260504183029 27 341 16.1 25.7 0.00 0.00 0.00 28 1000.7
20260504182529 27 315 9.7 24.1 0.00 0.00 0.00 27 1000.7
20260504182028 27 348 12.9 24.1 0.00 0.00 0.00 28 1000.7
20260504181528 27 315 16.1 27.4 0.00 0.00 0.00 25 1000.7
20260504181028 27 290 17.7 30.6 0.00 0.00 0.00 26 1000.7
20260504180526 27 338 16.1 30.6 0.00 0.00 0.00 27 1000.7
20260504180025 27 300 19.3 27.4 0.00 0.00 0.00 27 1000.9
20260504175524 27 355 12.9 22.5 0.00 0.00 0.00 28 1000.9
20260504175023 26 5 11.3 22.5 0.00 0.00 0.00 31 1000.9
20260504174523 26 338 12.9 24.1 0.00 0.00 0.00 29 1001.0
20260504174022 26 345 14.5 24.1 0.00 0.00 0.00 28 1001.0
20260504173521 26 259 11.3 20.9 0.00 0.00 0.00 29 1001.0
20260504173020 26 344 12.9 20.9 0.00 0.00 0.00 29 1001.1
20260504172519 26 5 11.3 24.1 0.00 0.00 0.00 31 1001.1
20260504172018 26 316 11.3 24.1 0.00 0.00 0.00 31 1001.1
20260504171517 26 355 6.4 20.9 0.00 0.00 0.00 31 1001.2
20260504171020 25 345 11.3 20.9 0.00 0.00 0.00 32 1001.2
20260504170517 25 333 9.7 20.9 0.00 0.00 0.00 33 1001.2
20260504160109 23 273 8.0 14.5 0.00 0.00 0.00 39 1001.4
20260504151044 20 315 8.0 14.5 0.00 0.00 0.00 44 1001.4
20260504150544 20 315 8.0 12.9 0.00 0.00 0.00 45 1001.4
20260504141026 17 289 8.0 14.5 0.00 0.00 0.00 54 1001.9
20260504140525 17 308 4.8 14.5 0.00 0.00 0.00 55 1001.9
20260504130508 12 123 1.6 4.8 0.00 0.00 0.00 74 1001.4
20260504110548 7 173 0.0 0.0 0.00 0.00 0.00 81 1001.3
20260504100541 7 173 0.0 0.0 0.00 0.00 0.00 78 1001.6
20260504081534 11 173 0.0 4.8 0.00 0.00 0.00 64 1003.0
20260504081031 11 173 0.0 4.8 0.00 0.00 0.00 63 1003.0
20260504080530 11 173 0.0 9.7 0.00 0.00 0.00 64 1003.0
20260504050506 12 203 1.6 6.4 0.00 0.00 0.00 64 1006.0
20260504050004 11 203 3.2 6.4 0.00 0.00 0.00 66 1006.1
20260504045503 11 202 1.6 4.8 0.00 0.00 0.00 69 1006.1
20260504045003 11 203 0.0 0.0 0.00 0.00 0.00 69 1006.1
20260504044509 11 203 0.0 0.0 0.00 0.00 0.00 70 1006.2
20260504044005 11 203 0.0 0.0 0.00 0.00 0.00 70 1006.2
20260504043502 11 203 0.0 0.0 0.00 0.00 0.00 69 1006.2
20260504043004 11 203 0.0 0.0 0.00 0.00 0.00 68 1006.3
20260504042502 11 203 0.0 0.0 0.00 0.00 0.00 67 1006.3
20260504042100 12 202 0.0 0.0 0.00 0.00 0.00 66 1006.3
20260504041614 12 202 0.0 0.0 0.00 0.00 0.00 65 1006.6
20260504041100 12 202 0.0 0.0 0.00 0.00 0.00 66 1006.6
20260504040600 12 203 0.0 1.6 0.00 0.00 0.00 66 1006.6
20260504040100 12 202 0.0 1.6 0.00 0.00 0.00 64 1006.6
20260504035559 12 202 0.0 3.2 0.00 0.00 0.00 65 1006.6
20260504035059 12 202 0.0 3.2 0.00 0.00 0.00 65 1006.6
20260504034620 12 203 0.0 0.0 0.00 0.00 0.00 63 1006.7
20260504034058 12 202 0.0 4.8 0.00 0.00 0.00 63 1006.7
20260504033558 12 202 0.0 8.0 0.00 0.00 0.00 64 1006.7
20260504033059 12 202 4.8 8.0 0.00 0.00 0.00 63 1006.7
20260504032557 12 202 0.0 3.2 0.00 0.00 0.00 64 1006.7
20260504032057 12 202 0.0 1.6 0.00 0.00 0.00 62 1006.7
20260504031556 13 202 0.0 3.2 0.00 0.00 0.00 61 1006.7
20260504031056 13 202 0.0 3.2 0.00 0.00 0.00 61 1006.7
20260504030558 13 202 1.6 3.2 0.00 0.00 0.00 61 1006.7
20260504030056 13 202 1.6 4.8 0.00 0.00 0.00 60 1006.8
20260504025555 13 202 1.6 4.8 0.00 0.00 0.00 60 1006.8
20260504025056 13 202 0.0 1.6 0.00 0.00 0.00 59 1006.8
20260504024555 13 202 0.0 3.2 0.00 0.00 0.00 58 1007.0
20260504024053 13 202 0.0 3.2 0.00 0.00 0.00 58 1007.0
20260504023553 13 202 1.6 3.2 0.00 0.00 0.00 58 1007.0
20260504023053 13 202 1.6 4.8 0.00 0.00 0.00 57 1007.1
20260504022553 14 202 3.2 4.8 0.00 0.00 0.00 57 1007.1
20260504022051 14 202 3.2 4.8 0.00 0.00 0.00 56 1007.1
20260504021553 15 202 0.0 3.2 0.00 0.00 0.00 53 1007.2
20260504021054 15 202 1.6 3.2 0.00 0.00 0.00 53 1007.2
20260504020554 15 202 1.6 3.2 0.00 0.00 0.00 53 1007.2
20260504015552 15 202 1.6 3.2 0.00 0.00 0.00 51 1007.2
20260504015051 16 202 1.6 3.2 0.00 0.00 0.00 53 1007.2
20260504014558 16 202 0.0 3.2 0.00 0.00 0.00 52 1007.2
20260504014051 17 202 0.0 4.8 0.00 0.00 0.00 51 1007.2
20260504013550 17 202 1.6 6.4 0.00 0.00 0.00 47 1007.2
20260504013108 18 202 4.8 6.4 0.00 0.00 0.00 46 1007.2
20260504012550 18 265 4.8 6.4 0.00 0.00 0.00 44 1007.2
20260504012050 19 265 3.2 4.8 0.00 0.00 0.00 41 1007.2